Weather Roundup
Issued by NWS Chicago, IL

Home | Current Version | Previous Version | Text Only | Print | Product List | Glossary Off
Versions: 1 2 3 4 5 6 7 8 9 10 11 12 13 14 15 16 17 18 19 20 21 22 23 24 25 26 27 28 29 30 31 32 33 34 35 36 37 38 39 40 41 42 43 44 45 46 47 48 49 50

000
NZUS59 KLOT 040208
HRRLOT

CHICAGO AREA WEATHER ROUNDUP
NATIONAL WEATHER SERVICE CHICAGO/ROMEOVILLE IL
900 PM CDT SUN MAY 03 2015

NOTE: "FAIR" INDICATES FEW OR NO CLOUDS BELOW 12,000 FEET WITH NO
SIGNIFICANT WEATHER AND/OR OBSTRUCTIONS TO VISIBILITY.

* THESE STATIONS ARE NOT UNDER NWS QUALITY CONTROL. THEY ALSO MAY NOT
  REPORT WEATHER SUCH AS PRECIPITATION OR FOG.

ILZ005-006-012>014-019>023-040300-
NORTHEAST ILLINOIS

CITY           SKY/WX    TMP DP  RH WIND       PRES   REMARKS
OHARE          TSTM      62  58  86 SE10      29.93S
MIDWAY         LGT RAIN  69  59  70 SE8       29.95S
AURORA         PTCLDY    62  56  80 E9        29.91S
LANSING*       CLOUDY    71  45  40 E3        29.95R
JOLIET*        CLOUDY    65  59  81 SE3       29.93F
WAUKEGAN       MOCLDY    61  58  90 SE8       29.90F
DUPAGE AIRPORT MOCLDY    66  54  65 SE14      29.90R
WHEELING       LGT RAIN  62  58  86 S10       29.92F
KANKAKEE*      CLOUDY    70  51  50 S10       29.96R
MORRIS*        CLOUDY    71  52  51 S9        29.90F
LEWIS AIRPORT* MOCLDY    63  57  81 E9        29.92F
NORTHERLY IS     N/A     64  57  78 S6          N/A
$$

WIZ051-052-058>065-066-070>072-040300-
SOUTHEAST WISCONSIN

CITY           SKY/WX    TMP DP  RH WIND       PRES   REMARKS
MILWAUKEE      PTCLDY    66  53  63 S12G22    29.87F
KENOSHA*       PTCLDY    64  57  78 S13       29.89F
RACINE*        PTCLDY    65  54  67 S12       29.90F
BURLINGTON     CLEAR     60  55  84 S5        29.89R
WAUKESHA       CLEAR     63  54  72 SW12      29.89S
WEST BEND      CLEAR     63  50  63 S8        29.87R
$$

INZ001>003-010>013-019-020-040300-
NORTHWEST INDIANA

CITY           SKY/WX    TMP DP  RH WIND       PRES   REMARKS
GARY*          LGT RAIN  61 N/A N/A E7        29.96R
MICHIGAN CITY* NOT AVBL
RENSSELAER*    NOT AVBL
VALPARAISO     CLOUDY    72  43  35 S8        29.98R
$$

LMZ740>746-040300-
SOUTHERN LAKE MICHIGAN

STATION/POSITION TIME  SKY/WX   TEMP WIND        PRES    VSBY
                                AIR  DIR/SP/G
                 (UTC)          (F)  (DEG/KT/KT) (MB)    (MI)
HARRISON CRIB    0100            62  270/  6/  8   N/A
BURNHAM HARBOR   0200            62  120/  3/  6   N/A
CALUMET HARBOR   0100            63  340/  5/  8   N/A
BURNS HARBOR     0100            73  190/  8/ 13 1014.9R
MICHIGAN CITY    0100            75  170/ 12/ 15   N/A
$$

ABBREVIATIONS USED IN REMARKS
   TC - TEMPERATURE IN CELSIUS
  WCI - WIND CHILL INDEX
   HX - HEAT INDEX
  VSB - VISIBILITY
$$



USA.gov is the U.S. government's official web portal to all federal, state and local government web resources and services.